| time (UTC) | temp F | wind direction | speed MPH | gust MPH | rain 1hr in | rain 24hr in | rain mn in | humidity % | barometer mb |
| 20260508070608 | 60 | 186 | 0.0 | 0.0 | 0.00 | 0.00 | 0.00 | ||
| 20260508070108 | 60 | 186 | 0.0 | 0.0 | 0.00 | 0.00 | 0.00 | ||
| 20260508065608 | 60 | 186 | 0.0 | 0.0 | 0.00 | 0.00 | 0.00 | ||
| 20260508064108 | 61 | 186 | 0.0 | 0.0 | 0.00 | 0.00 | 0.00 | ||
| 20260508063608 | 62 | 186 | 0.0 | 0.0 | 0.00 | 0.00 | 0.00 | ||
| 20260508063108 | 62 | 186 | 0.0 | 0.0 | 0.00 | 0.00 | 0.00 | ||
| 20260508062608 | 62 | 186 | 0.0 | 0.0 | 0.00 | 0.00 | 0.00 | ||
| 20260508062108 | 62 | 186 | 0.0 | 0.0 | 0.00 | 0.00 | 0.00 | ||
| 20260508061608 | 62 | 186 | 0.0 | 0.0 | 0.00 | 0.00 | 0.00 | ||
| 20260508061108 | 61 | 186 | 0.0 | 0.0 | 0.00 | 0.00 | 0.00 | ||
| 20260508060608 | 61 | 186 | 0.0 | 0.0 | 0.00 | 0.00 | 0.00 | ||
| 20260508060108 | 61 | 186 | 0.0 | 0.0 | 0.00 | 0.00 | 0.00 | ||
| 20260508055608 | 61 | 186 | 0.0 | 0.0 | 0.00 | 0.00 | 0.00 | ||
| 20260508055108 | 61 | 186 | 0.0 | 0.0 | 0.00 | 0.00 | 0.00 | ||
| 20260508054608 | 61 | 186 | 0.0 | 0.0 | 0.00 | 0.00 | 0.00 | ||
| 20260508053609 | 60 | 186 | 0.0 | 0.0 | 0.00 | 0.00 | 0.00 | ||
| 20260508053109 | 60 | 186 | 0.0 | 0.0 | 0.00 | 0.00 | 0.00 | ||
| 20260508052609 | 61 | 186 | 0.0 | 0.0 | 0.00 | 0.00 | 0.00 | ||
| 20260508052109 | 61 | 186 | 0.0 | 0.0 | 0.00 | 0.00 | 0.00 | ||
| 20260508051609 | 61 | 186 | 0.0 | 0.0 | 0.00 | 0.00 | 0.00 | ||
| 20260508051109 | 61 | 186 | 0.0 | 0.0 | 0.00 | 0.00 | 0.00 | ||
| 20260508050609 | 61 | 186 | 0.0 | 0.0 | 0.00 | 0.00 | 0.00 | ||
| 20260508050109 | 61 | 186 | 0.0 | 0.0 | 0.00 | 0.00 | 0.00 | ||
| 20260508045609 | 61 | 186 | 0.0 | 0.0 | 0.00 | 0.00 | 0.00 | ||
| 20260508045109 | 61 | 186 | 0.0 | 0.0 | 0.00 | 0.00 | 0.00 | ||
| 20260508044609 | 61 | 186 | 0.0 | 0.0 | 0.00 | 0.00 | 0.00 | ||
| 20260508044109 | 61 | 186 | 0.0 | 0.0 | 0.00 | 0.00 | 0.00 | ||
| 20260508043609 | 61 | 186 | 0.0 | 0.0 | 0.00 | 0.00 | 0.00 | ||
| 20260508043109 | 61 | 186 | 0.0 | 0.0 | 0.00 | 0.00 | 0.00 | ||
| 20260508042609 | 61 | 186 | 0.0 | 0.0 | 0.00 | 0.00 | 0.00 | ||
| 20260508042109 | 61 | 186 | 0.0 | 0.0 | 0.00 | 0.00 | 0.00 | ||
| 20260508041609 | 61 | 186 | 0.0 | 0.0 | 0.00 | 0.00 | 0.00 | ||
| 20260508041109 | 60 | 186 | 0.0 | 0.0 | 0.00 | 0.00 | 0.00 | ||
| 20260508040609 | 60 | 186 | 0.0 | 0.0 | 0.00 | 0.00 | 0.00 | ||
| 20260508035609 | 60 | 186 | 0.0 | 0.0 | 0.00 | 0.00 | 0.00 | ||
| 20260508034609 | 60 | 186 | 0.0 | 0.0 | 0.00 | 0.00 | 0.00 | ||
| 20260508033609 | 60 | 186 | 0.0 | 0.0 | 0.00 | 0.00 | 0.00 | ||
| 20260508033111 | 60 | 186 | 0.0 | 0.0 | 0.00 | 0.00 | 0.00 | ||
| 20260508032109 | 61 | 186 | 0.0 | 0.0 | 0.00 | 0.00 | 0.00 | ||
| 20260508031609 | 61 | 186 | 0.0 | 0.0 | 0.00 | 0.00 | 0.00 | ||
| 20260508030109 | 62 | 186 | 0.0 | 0.0 | 0.00 | 0.00 | 0.00 | ||
| 20260508025652 | 62 | 186 | 0.0 | 0.0 | 0.00 | 0.00 | 0.00 | ||
| 20260508025609 | 62 | 186 | 0.0 | 0.0 | 0.00 | 0.00 | 0.00 | ||
| 20260508024609 | 63 | 186 | 0.0 | 0.0 | 0.00 | 0.00 | 0.00 | ||
| 20260508024109 | 63 | 186 | 0.0 | 0.0 | 0.00 | 0.00 | 0.00 | ||
| 20260508023609 | 63 | 186 | 0.0 | 0.0 | 0.00 | 0.00 | 0.00 | ||
| 20260508022609 | 64 | 186 | 0.0 | 0.0 | 0.00 | 0.00 | 0.00 | ||
| 20260508022109 | 64 | 186 | 0.0 | 0.0 | 0.00 | 0.00 | 0.00 | ||
| 20260508021610 | 64 | 186 | 0.0 | 0.0 | 0.00 | 0.00 | 0.00 | ||
| 20260508021109 | 64 | 242 | 0.0 | 1.0 | 0.00 | 0.00 | 0.00 | ||
| 20260508020609 | 64 | 220 | 0.0 | 0.0 | 0.00 | 0.00 | 0.00 | ||
| 20260508020109 | 65 | 220 | 0.0 | 0.0 | 0.00 | 0.00 | 0.00 | ||
| 20260508015610 | 65 | 220 | 0.0 | 0.0 | 0.00 | 0.00 | 0.00 | ||
| 20260508015109 | 65 | 220 | 0.0 | 0.0 | 0.00 | 0.00 | 0.00 | ||
| 20260508014610 | 65 | 220 | 0.0 | 0.0 | 0.00 | 0.00 | 0.00 | ||
| 20260508014110 | 66 | 220 | 0.0 | 0.0 | 0.00 | 0.00 | 0.00 | ||
| 20260508013609 | 66 | 220 | 0.0 | 0.0 | 0.00 | 0.00 | 0.00 | ||
| 20260508013109 | 66 | 220 | 0.0 | 0.0 | 0.00 | 0.00 | 0.00 | ||
| 20260508012610 | 66 | 220 | 0.0 | 0.0 | 0.00 | 0.00 | 0.00 | ||
| 20260508012110 | 66 | 220 | 1.0 | 1.0 | 0.00 | 0.00 | 0.00 | ||
| 20260508011609 | 66 | 258 | 0.0 | 0.0 | 0.00 | 0.00 | 0.00 | ||
| 20260508011110 | 66 | 258 | 0.0 | 0.0 | 0.00 | 0.00 | 0.00 | ||
| 20260508010610 | 67 | 258 | 0.0 | 0.0 | 0.00 | 0.00 | 0.00 | ||
| 20260508010109 | 67 | 258 | 0.0 | 0.0 | 0.00 | 0.00 | 0.00 | ||
| 20260508005609 | 68 | 258 | 0.0 | 0.0 | 0.00 | 0.00 | 0.00 | ||
| 20260508005109 | 67 | 258 | 0.0 | 0.0 | 0.00 | 0.00 | 0.00 | ||
| 20260508004609 | 68 | 258 | 0.0 | 0.0 | 0.00 | 0.00 | 0.00 | ||
| 20260508004109 | 68 | 258 | 0.0 | 0.0 | 0.00 | 0.00 | 0.00 | ||
| 20260508003610 | 68 | 199 | 2.0 | 3.0 | 0.00 | 0.00 | 0.00 | ||
| 20260508002610 | 69 | 69 | 0.0 | 0.0 | 0.00 | 0.00 | 0.00 | ||
| 20260508002110 | 69 | 141 | 1.0 | 2.0 | 0.00 | 0.00 | 0.00 | ||
| 20260508001610 | 69 | 201 | 2.0 | 2.0 | 0.00 | 0.00 | 0.00 | ||
| 20260508000610 | 69 | 117 | 2.0 | 1.0 | 0.00 | 0.00 | 0.00 | ||
| 20260507235110 | 70 | 158 | 1.0 | 0.0 | 0.00 | 0.00 | 0.00 | ||
| 20260507233610 | 71 | 203 | 1.0 | 2.0 | 0.00 | 0.00 | 0.00 | ||
| 20260507231610 | 72 | 155 | 0.0 | 0.0 | 0.00 | 0.00 | 0.00 | ||
| 20260507231110 | 72 | 277 | 0.0 | 0.0 | 0.00 | 0.00 | 0.00 | ||
| 20260507230610 | 72 | 277 | 0.0 | 0.0 | 0.00 | 0.00 | 0.00 | ||
| 20260507230110 | 72 | 277 | 0.0 | 0.0 | 0.00 | 0.00 | 0.00 | ||
| 20260507225610 | 73 | 277 | 0.0 | 0.0 | 0.00 | 0.00 | 0.00 | ||
| 20260507225110 | 73 | 213 | 0.0 | 0.0 | 0.00 | 0.00 | 0.00 | ||
| 20260507224110 | 72 | 207 | 0.0 | 0.0 | 0.00 | 0.00 | 0.00 | ||
| 20260507223610 | 72 | 193 | 1.0 | 1.0 | 0.00 | 0.00 | 0.00 | ||
| 20260507222610 | 73 | 144 | 1.0 | 0.0 | 0.00 | 0.00 | 0.00 | ||
| 20260507222110 | 72 | 249 | 1.0 | 1.0 | 0.00 | 0.00 | 0.00 | ||
| 20260507221111 | 72 | 176 | 1.0 | 2.0 | 0.00 | 0.00 | 0.00 | ||
| 20260507220611 | 72 | 200 | 1.0 | 1.0 | 0.00 | 0.00 | 0.00 | ||
| 20260507215611 | 73 | 138 | 2.0 | 1.0 | 0.00 | 0.00 | 0.00 | ||
| 20260507215110 | 75 | 179 | 0.0 | 1.0 | 0.00 | 0.00 | 0.00 | ||
| 20260507214610 | 75 | 79 | 0.0 | 0.0 | 0.00 | 0.00 | 0.00 | ||
| 20260507213610 | 73 | 159 | 0.0 | 0.0 | 0.00 | 0.00 | 0.00 | ||
| 20260507213110 | 74 | 159 | 0.0 | 0.0 | 0.00 | 0.00 | 0.00 | ||
| 20260507212610 | 74 | 94 | 0.0 | 1.0 | 0.00 | 0.00 | 0.00 | ||
| 20260507212111 | 74 | 68 | 0.0 | 0.0 | 0.00 | 0.00 | 0.00 | ||
| 20260507211611 | 74 | 155 | 0.0 | 0.0 | 0.00 | 0.00 | 0.00 | ||
| 20260507211111 | 75 | 108 | 1.0 | 0.0 | 0.00 | 0.00 | 0.00 | ||
| 20260507210611 | 75 | 158 | 0.0 | 0.0 | 0.00 | 0.00 | 0.00 | ||
| 20260507210111 | 76 | 193 | 0.0 | 0.0 | 0.00 | 0.00 | 0.00 | ||
| 20260507205610 | 76 | 193 | 0.0 | 0.0 | 0.00 | 0.00 | 0.00 | ||
| 20260507205110 | 76 | 256 | 3.0 | 2.0 | 0.00 | 0.00 | 0.00 | ||
| 20260507204611 | 76 | 224 | 0.0 | 1.0 | 0.00 | 0.00 | 0.00 | ||
| 20260507204110 | 76 | 70 | 0.0 | 0.0 | 0.00 | 0.00 | 0.00 | ||
| 20260507202610 | 76 | 104 | 0.0 | 1.0 | 0.00 | 0.00 | 0.00 | ||
| 20260507202110 | 76 | 92 | 0.0 | 0.0 | 0.00 | 0.00 | 0.00 | ||
| 20260507201610 | 75 | 86 | 0.0 | 1.0 | 0.00 | 0.00 | 0.00 | ||
| 20260507201111 | 75 | 190 | 0.0 | 0.0 | 0.00 | 0.00 | 0.00 | ||
| 20260507200610 | 74 | 190 | 0.0 | 0.0 | 0.00 | 0.00 | 0.00 | ||
| 20260507200110 | 76 | 206 | 1.0 | 0.0 | 0.00 | 0.00 | 0.00 | ||
| 20260507195610 | 76 | 72 | 3.0 | 2.0 | 0.00 | 0.00 | 0.00 | ||
| 20260507195110 | 76 | 186 | 0.0 | 0.0 | 0.00 | 0.00 | 0.00 | ||
| 20260507194610 | 76 | 37 | 0.0 | 0.0 | 0.00 | 0.00 | 0.00 | ||
| 20260507193611 | 76 | 63 | 2.0 | 1.0 | 0.00 | 0.00 | 0.00 | ||
| 20260507193111 | 76 | 62 | 0.0 | 0.0 | 0.00 | 0.00 | 0.00 | ||
| 20260507192611 | 76 | 170 | 0.0 | 1.0 | 0.00 | 0.00 | 0.00 | ||
| 20260507192111 | 75 | 62 | 1.0 | 2.0 | 0.00 | 0.00 | 0.00 | ||
| 20260507191611 | 77 | 221 | 2.0 | 3.0 | 0.00 | 0.00 | 0.00 | ||
| 20260507191111 | 78 | 122 | 2.0 | 2.0 | 0.00 | 0.00 | 0.00 | ||
| 20260507190611 | 79 | 172 | 1.0 | 3.0 | 0.00 | 0.00 | 0.00 | ||
| 20260507185611 | 79 | 338 | 2.0 | 0.0 | 0.00 | 0.00 | 0.00 | ||
| 20260507185111 | 80 | 38 | 3.0 | 3.0 | 0.00 | 0.00 | 0.00 | ||
| 20260507184111 | 81 | 339 | 3.0 | 7.0 | 0.00 | 0.00 | 0.00 | ||
| 20260507183611 | 81 | 331 | 6.0 | 7.0 | 0.00 | 0.00 | 0.00 | ||
| 20260507182611 | 80 | 45 | 5.0 | 3.0 | 0.00 | 0.00 | 0.00 | ||
| 20260507182111 | 79 | 332 | 7.0 | 4.0 | 0.00 | 0.00 | 0.00 | ||
| 20260507181611 | 79 | 17 | 3.0 | 10.0 | 0.00 | 0.00 | 0.00 | ||
| 20260507181111 | 79 | 56 | 2.0 | 2.0 | 0.00 | 0.00 | 0.00 | ||
| 20260507180611 | 80 | 73 | 3.0 | 1.0 | 0.00 | 0.00 | 0.00 | ||
| 20260507180111 | 79 | 359 | 3.0 | 8.0 | 0.00 | 0.00 | 0.00 | ||
| 20260507175611 | 78 | 359 | 3.0 | 4.0 | 0.00 | 0.00 | 0.00 | ||
| 20260507175111 | 78 | 13 | 1.0 | 1.0 | 0.00 | 0.00 | 0.00 | ||
| 20260507174611 | 78 | 146 | 2.0 | 4.0 | 0.00 | 0.00 | 0.00 | ||
| 20260507174111 | 78 | 332 | 2.0 | 3.0 | 0.00 | 0.00 | 0.00 | ||
| 20260507173111 | 78 | 14 | 2.0 | 4.0 | 0.00 | 0.00 | 0.00 | ||
| 20260507172611 | 76 | 28 | 3.0 | 7.0 | 0.00 | 0.00 | 0.00 | ||
| 20260507172112 | 75 | 291 | 3.0 | 7.0 | 0.00 | 0.00 | 0.00 | ||
| 20260507171611 | 75 | 348 | 3.0 | 1.0 | 0.00 | 0.00 | 0.00 | ||
| 20260507171111 | 74 | 324 | 2.0 | 5.0 | 0.00 | 0.00 | 0.00 | ||
| 20260507170611 | 73 | 359 | 4.0 | 5.0 | 0.00 | 0.00 | 0.00 | ||
| 20260507170111 | 73 | 356 | 1.0 | 4.0 | 0.00 | 0.00 | 0.00 | ||
| 20260507165611 | 74 | 11 | 4.0 | 2.0 | 0.00 | 0.00 | 0.00 | ||
| 20260507165111 | 74 | 315 | 3.0 | 1.0 | 0.00 | 0.00 | 0.00 | ||
| 20260507164611 | 74 | 3 | 2.0 | 0.0 | 0.00 | 0.00 | 0.00 | ||
| 20260507164111 | 73 | 359 | 5.0 | 5.0 | 0.00 | 0.00 | 0.00 | ||
| 20260507163611 | 73 | 320 | 4.0 | 6.0 | 0.00 | 0.00 | 0.00 | ||
| 20260507163111 | 71 | 334 | 6.0 | 7.0 | 0.00 | 0.00 | 0.00 | ||
| 20260507162611 | 70 | 348 | 3.0 | 2.0 | 0.00 | 0.00 | 0.00 | ||
| 20260507162111 | 70 | 52 | 1.0 | 2.0 | 0.00 | 0.00 | 0.00 | ||
| 20260507161611 | 70 | 355 | 1.0 | 1.0 | 0.00 | 0.00 | 0.00 | ||
| 20260507161112 | 70 | 338 | 1.0 | 0.0 | 0.00 | 0.00 | 0.00 | ||
| 20260507160611 | 69 | 70 | 2.0 | 1.0 | 0.00 | 0.00 | 0.00 | ||
| 20260507160111 | 70 | 338 | 1.0 | 4.0 | 0.00 | 0.00 | 0.00 | ||
| 20260507155611 | 70 | 13 | 2.0 | 1.0 | 0.00 | 0.00 | 0.00 | ||
| 20260507155111 | 70 | 69 | 2.0 | 3.0 | 0.00 | 0.00 | 0.00 | ||
| 20260507154611 | 70 | 4 | 1.0 | 3.0 | 0.00 | 0.00 | 0.00 | ||
| 20260507154112 | 70 | 27 | 2.0 | 0.0 | 0.00 | 0.00 | 0.00 | ||
| 20260507153111 | 69 | 65 | 0.0 | 0.0 | 0.00 | 0.00 | 0.00 | ||
| 20260507152611 | 69 | 62 | 2.0 | 2.0 | 0.00 | 0.00 | 0.00 | ||
| 20260507152111 | 68 | 92 | 3.0 | 4.0 | 0.00 | 0.00 | 0.00 | ||
| 20260507151611 | 68 | 356 | 4.0 | 4.0 | 0.00 | 0.00 | 0.00 | ||
| 20260507151111 | 67 | 1 | 1.0 | 3.0 | 0.00 | 0.00 | 0.00 | ||
| 20260507150611 | 67 | 28 | 0.0 | 0.0 | 0.00 | 0.00 | 0.00 | ||
| 20260507150112 | 66 | 359 | 2.0 | 4.0 | 0.00 | 0.00 | 0.00 | ||
| 20260507145612 | 66 | 18 | 5.0 | 7.0 | 0.00 | 0.00 | 0.00 | ||
| 20260507145111 | 66 | 331 | 2.0 | 5.0 | 0.00 | 0.00 | 0.00 | ||
| 20260507144612 | 65 | 14 | 1.0 | 1.0 | 0.00 | 0.00 | 0.00 | ||
| 20260507144112 | 64 | 24 | 2.0 | 1.0 | 0.00 | 0.00 | 0.00 | ||
| 20260507143612 | 64 | 355 | 3.0 | 2.0 | 0.00 | 0.00 | 0.00 | ||
| 20260507143112 | 63 | 114 | 2.0 | 2.0 | 0.00 | 0.00 | 0.00 | ||
| 20260507142612 | 63 | 194 | 1.0 | 2.0 | 0.00 | 0.00 | 0.00 | ||
| 20260507142112 | 62 | 11 | 0.0 | 2.0 | 0.00 | 0.00 | 0.00 | ||
| 20260507141612 | 62 | 11 | 3.0 | 5.0 | 0.00 | 0.00 | 0.00 | ||
| 20260507141112 | 62 | 8 | 0.0 | 0.0 | 0.00 | 0.00 | 0.00 | ||
| 20260507140612 | 61 | 325 | 2.0 | 0.0 | 0.00 | 0.00 | 0.00 | ||
| 20260507140112 | 61 | 8 | 2.0 | 4.0 | 0.00 | 0.00 | 0.00 | ||
| 20260507135612 | 60 | 338 | 3.0 | 3.0 | 0.00 | 0.00 | 0.00 | ||
| 20260507135112 | 60 | 358 | 0.0 | 0.0 | 0.00 | 0.00 | 0.00 | ||
| 20260507134612 | 60 | 321 | 0.0 | 0.0 | 0.00 | 0.00 | 0.00 | ||
| 20260507134112 | 59 | 321 | 0.0 | 0.0 | 0.00 | 0.00 | 0.00 | ||
| 20260507133612 | 58 | 321 | 0.0 | 0.0 | 0.00 | 0.00 | 0.00 | ||
| 20260507133112 | 58 | 242 | 0.0 | 0.0 | 0.00 | 0.00 | 0.00 | ||
| 20260507132612 | 57 | 242 | 0.0 | 0.0 | 0.00 | 0.00 | 0.00 | ||
| 20260507132112 | 56 | 242 | 0.0 | 0.0 | 0.00 | 0.00 | 0.00 | ||
| 20260507131612 | 56 | 242 | 0.0 | 0.0 | 0.00 | 0.00 | 0.00 | ||
| 20260507131112 | 56 | 242 | 0.0 | 0.0 | 0.00 | 0.00 | 0.00 | ||
| 20260507130112 | 56 | 242 | 0.0 | 0.0 | 0.00 | 0.00 | 0.00 | ||
| 20260507125612 | 56 | 242 | 0.0 | 0.0 | 0.00 | 0.00 | 0.00 | ||
| 20260507125112 | 56 | 328 | 0.0 | 0.0 | 0.00 | 0.00 | 0.00 | ||
| 20260507124612 | 55 | 328 | 0.0 | 0.0 | 0.00 | 0.00 | 0.00 | ||
| 20260507124112 | 55 | 328 | 0.0 | 0.0 | 0.00 | 0.00 | 0.00 | ||
| 20260507123612 | 53 | 328 | 0.0 | 0.0 | 0.00 | 0.00 | 0.00 | ||
| 20260507123112 | 53 | 328 | 0.0 | 0.0 | 0.00 | 0.00 | 0.00 | ||
| 20260507122613 | 53 | 328 | 0.0 | 0.0 | 0.00 | 0.00 | 0.00 | ||
| 20260507122112 | 52 | 328 | 0.0 | 0.0 | 0.00 | 0.00 | 0.00 | ||
| 20260507121612 | 52 | 328 | 0.0 | 0.0 | 0.00 | 0.00 | 0.00 | ||
| 20260507121113 | 52 | 328 | 0.0 | 0.0 | 0.00 | 0.00 | 0.00 | ||
| 20260507120612 | 53 | 328 | 0.0 | 0.0 | 0.00 | 0.00 | 0.00 | ||
| 20260507115613 | 52 | 328 | 0.0 | 0.0 | 0.00 | 0.00 | 0.00 | ||
| 20260507115113 | 53 | 328 | 0.0 | 0.0 | 0.00 | 0.00 | 0.00 | ||
| 20260507114612 | 52 | 328 | 0.0 | 0.0 | 0.00 | 0.00 | 0.00 | ||
| 20260507114113 | 52 | 297 | 0.0 | 0.0 | 0.00 | 0.00 | 0.00 | ||
| 20260507113613 | 52 | 15 | 0.0 | 0.0 | 0.00 | 0.00 | 0.00 | ||
| 20260507113112 | 52 | 15 | 1.0 | 0.0 | 0.00 | 0.00 | 0.00 | ||
| 20260507112612 | 53 | 13 | 0.0 | 0.0 | 0.00 | 0.00 | 0.00 | ||
| 20260507112113 | 52 | 349 | 2.0 | 2.0 | 0.00 | 0.00 | 0.00 | ||
| 20260507111613 | 52 | 307 | 2.0 | 1.0 | 0.00 | 0.00 | 0.00 | ||
| 20260507111112 | 52 | 327 | 0.0 | 0.0 | 0.00 | 0.00 | 0.00 | ||
| 20260507110612 | 52 | 341 | 0.0 | 2.0 | 0.00 | 0.00 | 0.00 | ||
| 20260507110113 | 52 | 345 | 1.0 | 3.0 | 0.00 | 0.00 | 0.00 | ||
| 20260507105612 | 52 | 301 | 0.0 | 0.0 | 0.00 | 0.00 | 0.00 | ||
| 20260507105113 | 52 | 301 | 2.0 | 0.0 | 0.00 | 0.00 | 0.00 | ||
| 20260507104613 | 52 | 342 | 0.0 | 0.0 | 0.00 | 0.00 | 0.00 | ||
| 20260507104112 | 52 | 342 | 0.0 | 0.0 | 0.00 | 0.00 | 0.00 | ||
| 20260507103112 | 52 | 329 | 0.0 | 0.0 | 0.00 | 0.00 | 0.00 | ||
| 20260507102613 | 52 | 329 | 0.0 | 0.0 | 0.00 | 0.00 | 0.00 | ||
| 20260507102112 | 52 | 329 | 0.0 | 0.0 | 0.00 | 0.00 | 0.00 | ||
| 20260507101613 | 52 | 329 | 0.0 | 0.0 | 0.00 | 0.00 | 0.00 | ||
| 20260507101113 | 52 | 332 | 1.0 | 0.0 | 0.00 | 0.00 | 0.00 | ||
| 20260507100612 | 52 | 342 | 0.0 | 1.0 | 0.00 | 0.00 | 0.00 | ||
| 20260507100112 | 52 | 303 | 0.0 | 0.0 | 0.00 | 0.00 | 0.00 | ||
| 20260507095613 | 52 | 303 | 0.0 | 0.0 | 0.00 | 0.00 | 0.00 | ||
| 20260507095113 | 52 | 303 | 0.0 | 0.0 | 0.00 | 0.00 | 0.00 | ||
| 20260507094612 | 52 | 46 | 0.0 | 0.0 | 0.00 | 0.00 | 0.00 | ||
| 20260507094113 | 52 | 46 | 0.0 | 0.0 | 0.00 | 0.00 | 0.00 | ||
| 20260507093113 | 53 | 46 | 0.0 | 0.0 | 0.00 | 0.00 | 0.00 | ||
| 20260507092613 | 53 | 46 | 0.0 | 0.0 | 0.00 | 0.00 | 0.00 | ||
| 20260507092113 | 53 | 46 | 0.0 | 0.0 | 0.00 | 0.00 | 0.00 | ||
| 20260507091613 | 54 | 46 | 0.0 | 0.0 | 0.00 | 0.00 | 0.00 | ||
| 20260507091113 | 54 | 46 | 0.0 | 0.0 | 0.00 | 0.00 | 0.00 | ||
| 20260507090613 | 54 | 348 | 0.0 | 2.0 | 0.00 | 0.00 | 0.00 | ||
| 20260507090113 | 54 | 39 | 1.0 | 1.0 | 0.00 | 0.00 | 0.00 | ||
| 20260507085613 | 54 | 352 | 0.0 | 0.0 | 0.00 | 0.00 | 0.00 | ||
| 20260507085113 | 54 | 352 | 0.0 | 0.0 | 0.00 | 0.00 | 0.00 | ||
| 20260507084613 | 53 | 352 | 1.0 | 0.0 | 0.00 | 0.00 | 0.00 | ||
| 20260507084113 | 53 | 329 | 0.0 | 0.0 | 0.00 | 0.00 | 0.00 | ||
| 20260507083613 | 54 | 296 | 0.0 | 0.0 | 0.00 | 0.00 | 0.00 | ||
| 20260507083113 | 53 | 296 | 0.0 | 0.0 | 0.00 | 0.00 | 0.00 | ||
| 20260507082113 | 54 | 272 | 0.0 | 0.0 | 0.00 | 0.00 | 0.00 | ||
| 20260507081613 | 55 | 272 | 0.0 | 0.0 | 0.00 | 0.00 | 0.00 | ||
| 20260507081113 | 55 | 272 | 0.0 | 0.0 | 0.00 | 0.00 | 0.00 | ||
| 20260507080613 | 55 | 331 | 0.0 | 0.0 | 0.00 | 0.00 | 0.00 | ||
| 20260507080113 | 55 | 331 | 0.0 | 0.0 | 0.00 | 0.00 | 0.00 | ||
| 20260507075613 | 55 | 331 | 0.0 | 0.0 | 0.00 | 0.00 | 0.00 | ||
| 20260507075113 | 56 | 331 | 0.0 | 0.0 | 0.00 | 0.00 | 0.00 | ||
| 20260507074613 | 56 | 331 | 0.0 | 0.0 | 0.00 | 0.00 | 0.00 | ||
| 20260507074113 | 56 | 355 | 0.0 | 0.0 | 0.00 | 0.00 | 0.00 | ||
| 20260507073614 | 56 | 21 | 1.0 | 1.0 | 0.00 | 0.00 | 0.00 | ||
| 20260507073113 | 56 | 3 | 0.0 | 0.0 | 0.00 | 0.00 | 0.00 | ||
| 20260507072613 | 56 | 3 | 2.0 | 1.0 | 0.00 | 0.00 | 0.00 | ||
| 20260507072114 | 56 | 355 | 0.0 | 4.0 | 0.00 | 0.00 | 0.00 | ||
| 20260507071614 | 56 | 20 | 2.0 | 2.0 | 0.00 | 0.00 | 0.00 |